Regional Weather Roundup
Issued by NWS San Diego, CA

Home | Current Version | Previous Version | Text Only | Print | Product List | Glossary On
Versions: 1 2 3 4 5 6 7 8 9 10 11 12 13 14 15 16 17 18 19 20 21 22 23 24 25 26 27
000
ASUS46 KSGX 201011
RWRSGX

SAN DIEGO HOURLY WEATHER ROUNDUP
NATIONAL WEATHER SERVICE SAN DIEGO CA
300 AM PDT FRI APR 20 2018

NOTE: "FAIR" INDICATES FEW OR NO CLOUDS BELOW 12,000 FEET WITH NO
SIGNIFICANT WEATHER AND/OR OBSTRUCTIONS TO VISIBILITY.

CAZ042-043-060-061-PZZ750-775-201100-

GREATER SAN DIEGO AREA

CITY           SKY/WX    TMP DP  RH WIND       PRES   REMARKS
SAN DIEGO AP   FAIR      54  45  71 E7        30.13R
NATIONAL CITY    N/A     52  47  82 E2        30.13R
CHULA VISTA      N/A     50  46  86 CALM      30.04R
IMPERIAL BEACH   N/A     48  43  82 E7        30.12S
BROWN FIELD    FAIR      49  43  80 SE5       30.11S
MIRAMAR MCAS   FAIR      49  43  80 E7        30.10S
MONTGOMERY FLD FAIR      49  44  83 SE6       30.11S
GILLESPIE FLD  CLOUDY    46  43  87 CALM      30.11S

$$

NORTH SAN DIEGO COUNTY

CITY           SKY/WX    TMP DP  RH WIND       PRES   REMARKS
CAMP PENDLETON MOCLDY    44  41  89 CALM      30.11S
OCEANSIDE AP   FAIR      46  42  86 NE5       30.10S
OCEANSIDE HBR    N/A     48  45  88 S3        30.12S
VISTA            N/A     47  42  83 CALM      30.09R
CARLSBAD       FAIR      51  45  79 E6        30.09S
DEL MAR          N/A     50  46  85 CALM      30.12S
LA JOLLA SCRIP   N/A     51  47  86 E6        30.11R
FALLBROOK        N/A     47  47  99 CALM      30.12R
ESCONDIDO        N/A     48  43  82 SE2       30.12R
SAN MARCOS       N/A     48  43  84 CALM      30.15R
POWAY            N/A     45  41  85 CALM      30.11S

$$

EAST SAN DIEGO COUNTY

CITY           SKY/WX    TMP DP  RH WIND       PRES   REMARKS
RAMONA         FAIR      38  37  97 E3        30.10R
SANTEE LAKES     N/A     44  41  89 CALM      30.12R
LA MESA          N/A     48  44  85 CALM      30.06R
JAMUL            N/A     42  39  89 CALM      30.13R
CAMPO            N/A     35  33  92 N6        30.05R WCI  30

$$

ORANGE COUNTY AND THE LOS ANGELES BASIN

CITY           SKY/WX    TMP DP  RH WIND       PRES   REMARKS
JOHN WAYNE AP  MOCLDY    54  46  74 SE9       30.09R
LAGUNA BEACH     N/A     52  47  82 CALM      30.05R
LAKE FOREST FR   N/A     50  41  71 CALM      29.98R
HUNTINGTON BCH   N/A     53  51  92 CALM      30.09R
LOS ALAMITOS   FAIR      53  49  87 SE5       30.08R
FULLERTON      FAIR      54  49  83 SE6       30.08R
LONG BEACH     FAIR      55  50  83 S6        30.07S
L.A. AP        FAIR      54  49  83 E3        30.08R
L.A. DOWNTOWN  FAIR      54  48  80 VRB6      30.07R

$$

THE INLAND EMPIRE

CITY           SKY/WX    TMP DP  RH WIND       PRES   REMARKS
CORONA         FAIR      38  36  92 CALM      30.10R
CHINO          FAIR      47  42  83 E5        30.10R
ONTARIO        FAIR      47  42  83 W3        30.08R
SAN BERNARDINO FAIR      48  40  73 E3        30.09R
RIVERSIDE AP   FAIR      47  41  80 CALM      30.09R
MORENO VALLEY    N/A     42  42  97 CALM      28.19S
MARCH ARB      FAIR      44  44 100 SE3       30.08R
HORSETHIEF CYN   N/A     43  35  72 W3        30.10R
PERRIS           N/A     45  44  97 CALM      30.04S
HEMET EAST       N/A     42  35  75 CALM      30.05R
FRENCH VALLEY  FAIR      41  37  87 SE5       30.09S
TEMECULA         N/A     47  44  91 CALM      30.15R

$$

SAN BERNARDINO AND RIVERSIDE COUNTY MOUNTAINS

CITY           SKY/WX    TMP DP  RH WIND       PRES   REMARKS
BIG BEAR AP    FAIR      32  18  55 SW6       30.05S WCI  26
ANGELUS OAKS     N/A     34  22  61 CALM      30.09R

$$

SOUTHERN DESERT INCLUDING THE COACHELLA VALLEY

CITY           SKY/WX    TMP DP  RH WIND       PRES   REMARKS
PALM SPRINGS   FAIR      59  36  42 VRB3      29.96R
THOUSAND PALMS   N/A     58  39  50 NW15      29.93
PALM DESERT      N/A     56  40  55 CALM        N/A
THERMAL        FAIR      61  38  42 NW10      29.95R
BLYTHE         FAIR      60  24  25 CALM      29.93R
IMPERIAL AP    FAIR      54  36  50 W9        29.96R
EL CENTRO NAS  FAIR      54  35  48 SW8       29.98R
YUMA AZ        FAIR      52  38  58 SW5       29.98R

$$

UPPER DESERT

CITY           SKY/WX    TMP DP  RH WIND       PRES   REMARKS
VICTORVILLE AP FAIR      48  27  43 W17G23    30.04R
HESPERIA         N/A     46  26  46 W3        30.12R
APPLE VALLEY     N/A     48  27  43 E3        30.10R
PALMDALE       FAIR      49  31  49 W14       30.08R
LANCASTER      FAIR      49  32  52 W15       30.08R
EDWARDS AFB    FAIR      50  30  46 W8        30.03S
DAGGETT        FAIR      53  29  39 W25       30.01R
29 PALMS N     FAIR      54  23  30 NW20G31   30.04R
NEEDLES        FAIR      63  26  24 W13       29.91R

$$

REGIONAL REPORTS

CITY           SKY/WX    TMP DP  RH WIND       PRES   REMARKS
SANTA BARBARA  FAIR      50  41  71 NW6       30.07S
SANDBERG       FAIR      40  31  70 N31G44    30.10F WCI  28
LAS VEGAS NV   MOCLDY    57  34  41 N22G28    29.91R
PHOENIX AZ     FAIR      60  31  33 W8        29.90R
TIJUANA        CLEAR     50  43  76 E5        30.14
ENSENADA NW      N/A     53  32  45 CALM      30.06S

$$

OFFSHORE ISLANDS

CITY           SKY/WX    TMP DP  RH WIND       PRES   REMARKS
CATALINA ARPT  FAIR     N/A N/A N/A E3        30.08S

$$

MARINE AND OFFSHORE BUOY REPORTS

STATION/POSITION SKY/WX   TEMP    WIND        PRES    VSBY  SWELL
                          AIR SEA DIR/SP/G                  HT/PER/DIR
                          (F)     (DEG/KT/KT) (MB)    (MI)  (FT/S/D)
TANNER BANKS               56 56              1019.7R
S CLEMENTE BASIN           57 61  290/ 12/ 14 1019.2R         7/290/ 9
SAN NICOLAS IS.               56                N/A           3/290/13
SO. S. ROSA ISLA           54 55  300/ 21/ 25 1018.7R         3/310/13
W. S. BARBARA CH              52  310/ 16/ 19 1019.2S         7/280/ 8
M. S. BARBARA CH           55 54  290/ 12/ 16 1019.0
S. MONICA BASIN                   340/ 14/ 16 1017.9
S PEDRO CHANNEL               54                N/A           2/230/13
CMP PENDLETON NS              58                N/A           2/250/11
OCEANSIDE OFFSHR              58                N/A           2/220/13
TORREY PINES OTR              59                N/A           2/220/14
SAN DIEGO BAY                 60              1019.5R
POINT LOMA SOUTH              60                N/A           2/270/11

$$





USA.gov is the U.S. government's official web portal to all federal, state and local government web resources and services.